Content
SEND FEEDBACK

Daily
Averages
Monthly
Summary
United States of America

ADOLPH, MINNESOTA


Home > North America > United States > Minnesota
Elevation: 1395 feet     Latitude: 46 49N     Longitude: 092 10W

WEATHER
 
SELECT A DAY
Number of Records: 109,777;   Date Range: 1/1/95 - 7/7/14
 
SHARE

PRINT THIS DATA

[ ← Previous Day ]
WEATHER ALMANAC - JANUARY 31, 2013
[ Next Day → ]
[ °C ]   °F
Weather ElementAverageHighLow
Temperature1.6 °F5 °F (1:55 am)-11.9 °F (11:55 pm)
Dewpoint-7.5 °F-2.2 °F (3:21 am)-18.9 °F (11:55 pm)
Humidity65.8 %78 % (3:21 am)56 % (4:02 pm)
Barometer29.90 in30.20 in (11:55 pm)29.65 in (3:21 am)
Wind Speed15.6 mph21.9 mph (4:02 pm)
Wind Gust31.1 mph (7:55 am)
Weather ElementAverage
Visibility6.4 mi
Wind DirectionNW (317.8 °)

Weather ElementTotal
Precipitation---
Heating Degree Days68.5 (Base 65)
Averaged from 37 records on January 31, 2013
WEATHER CONDITIONS BREAKOUT
WIND DIRECTION BREAKOUT
WEATHER BY HOUR - JANUARY 31, 2013
[ °C ]   °F
Local TimeTemperatureDewpointHumidityBarometerVisibilityWind DirectionWind SpeedGust SpeedPrecipitationEventsConditions
1:55 AM5.0 °F-2.9 °F70 %29.72 in3.0 miNNW (330°)13.8 mph20.7 mph0.00 inSnowLight Snow
2:55 AM3.9 °F-2.9 °F73 %29.74 in3.0 miNNW (340°)12.7 mph0.00 inSnowLight Snow
3:21 AM3.2 °F-2.2 °F78 %29.65 in9.0 miNNW (330°)6.9 mph0.00 inSnowLight Snow
3:55 AM3.9 °F-2.9 °F73 %29.75 in2.5 miNNW (330°)11.5 mph18.4 mph0.00 inSnowLight Snow
4:10 AM3.2 °F-2.2 °F78 %29.65 in3.0 miNW (320°)12.7 mph0.00 inSnowLight Snow
4:27 AM3.2 °F-2.2 °F78 %29.65 in2.5 miNNW (330°)12.7 mph23.0 mph0.00 inSnowLight Snow
4:55 AM3.9 °F-2.9 °F73 %29.77 in2.0 miNW (320°)13.8 mph0.00 inSnowLight Snow
5:40 AM3.2 °F-5.8 °F66 %29.67 in2.5 miNNW (330°)13.8 mph20.7 mph0.00 inSnowLight Snow
5:55 AM3.0 °F-5.1 °F69 %29.79 in2.5 miNNW (330°)11.5 mph24.2 mph0.00 inSnowLight Snow
6:02 AM1.4 °F-5.8 °F72 %29.68 in4.0 miNNW (330°)13.8 mph19.6 mph0.00 inSnowLight Snow
6:55 AM1.9 °F-5.1 °F72 %29.81 in5.0 miNW (320°)13.8 mph20.7 mph0.00 inSnowLight Snow
7:55 AM1.9 °F-6.0 °F69 %29.83 in7.0 miNW (320°)17.3 mph31.1 mph0.00 inSnowLight Snow
8:55 AM1.0 °F-7.1 °F69 %29.87 in5.0 miNW (320°)18.4 mph28.8 mph0.00 inHaze
9:55 AM1.9 °F-8.0 °F63 %29.90 in7.0 miNNW (330°)18.4 mph25.3 mphOvercast
10:55 AM3.0 °F-8.0 °F60 %29.94 in9.0 miNNW (330°)20.7 mph27.6 mphMostly Cloudy
11:50 AM3.2 °F-7.6 °F61 %29.84 in5.0 miNNW (330°)15.0 mph25.3 mph0.00 inSnowLight Snow
11:55 AM3.0 °F-8.0 °F60 %29.95 in4.0 miNNW (330°)15.0 mph25.3 mph0.00 inSnowLight Snow
12:07 PM3.2 °F-7.6 °F61 %29.84 in4.0 miNW (320°)13.8 mph23.0 mph0.00 inSnowLight Snow
12:55 PM3.9 °F-7.1 °F60 %29.96 in7.0 miNW (310°)16.1 mph24.2 mph0.00 inSnowLight Snow
1:02 PM3.2 °F-7.6 °F61 %29.85 in4.0 miNW (310°)16.1 mph24.2 mph0.00 inSnowLight Snow
1:34 PM3.2 °F-7.6 °F61 %29.86 in6.0 miNW (320°)15.0 mph24.2 mph0.00 inSnowLight Snow
1:41 PM3.2 °F-7.6 °F61 %29.86 in6.0 miNW (320°)18.4 mph24.2 mph0.00 inSnowLight Snow
1:51 PM3.2 °F-7.6 °F61 %29.86 in6.0 miNW (310°)17.3 mph26.5 mph0.00 inSnowLight Snow
1:55 PM3.9 °F-7.1 °F60 %29.98 in6.0 miNW (310°)19.6 mph25.3 mph0.00 inSnowLight Snow
2:33 PM3.2 °F-7.6 °F61 %29.87 in7.0 miNW (310°)16.1 mph26.5 mph0.00 inSnowLight Snow
2:55 PM3.9 °F-8.0 °F58 %30.00 in7.0 miNW (310°)20.7 mph29.9 mph0.00 inSnowLight Snow
3:36 PM3.2 °F-7.6 °F61 %29.90 in9.0 miNW (310°)18.4 mph25.3 mph0.00 inMostly Cloudy
3:55 PM3.0 °F-8.0 °F60 %30.02 in10.0 miNW (310°)19.6 mph25.3 mph0.00 inMostly Cloudy
4:02 PM3.2 °F-9.4 °F56 %29.91 in10.0 miNW (310°)21.9 mph29.9 mphMostly Cloudy
4:55 PM1.9 °F-9.0 °F60 %30.06 in10.0 miNW (310°)18.4 mph25.3 mphScattered Clouds
5:55 PM1.0 °F-9.0 °F63 %30.08 in10.0 miNW (310°)13.8 mphPartly Cloudy
6:55 PM0.0 °F-9.9 °F63 %30.09 in10.0 miNW (310°)16.1 mph25.3 mphPartly Cloudy
7:55 PM-0.9 °F-9.9 °F66 %30.12 in10.0 miNW (310°)16.1 mph26.5 mphPartly Cloudy
8:55 PM-5.1 °F-13.0 °F69 %30.14 in10.0 miWNW (300°)18.4 mph24.2 mphClear
9:55 PM-7.1 °F-15.0 °F68 %30.17 in10.0 miWNW (300°)15.0 mphClear
10:55 PM-9.9 °F-17.0 °F71 %30.19 in10.0 miWNW (300°)13.8 mphClear
11:55 PM-11.9 °F-18.9 °F71 %30.20 in10.0 miWNW (300°)11.5 mphClear
Hourly data recorded from KDLH, located miles away from Adolph, Minnesota







STORIES FROM OUR PARTNERS